Sugarloaf Regional (B21)
Carrabassett, ME
Field Elevation: 885
Lat: 45°05.12N  Long: 70°12.98W
CTAF/Unicom Freq: 122.8000
   
    
Weather Advisories
12/20/2014 19:22 Z
Altimeter 30.27" Hg
Wind --
Gusts --
Visibility 10 SM
Temperature -4° C (25° F)
Dewpoint -8° C (18° F)
Relative Humidity 74%
Density Altitude --
Condensation Altitude 2,800 feet
Wind Chill -6° C (21° F)
  Wind and Runways
History
 
 
More Info
All DigiWx sites map
 
NOAA Forecast
 
Airport IQ 5010
(39N) Princeton, NJ
(PN44) Upper Gwynedd Heliport
 
about DigiWx
 
FAA Disclaimer: The data displayed is for advisory purposes only and is not to be used for flight planning or operations. For official data, please call (not available) to hear the current automated AWOS voice message.
  METAR B21 201922Z AUTO 100003KT 10SM M04/M08 A3027